Location: Innerarity Island Observatory
(30.3139°N, 87.4867°W)
Time: 00:30:09
(UTC-06:00)

Amateur Radio Satellites - All Passes

Search period start: 05 March 2015 00:00
Search period end: 06 March 2015 00:00
Location: Innerarity Island Observatory, 30.3139°N, 87.4867°W

Satellite Date Start Highest point End Downlink Frequencies (MHz)
Time Altitude Azimuth
TISAT 1 05 Mar 00:06:04 00:09:55 31° 263° (W) 00:13:42 437.305
SPROUT 05 Mar 00:11:10 00:14:47 25° 264° (W) 00:18:21 437.525
DANDE 05 Mar 00:29:31 00:35:14 26° 281° (W) 00:39:43 436.750
SO-50 05 Mar 00:44:59 00:49:24 52° 300° (WNW) 00:54:00 436.795
CUSAT 1 05 Mar 00:48:02 00:50:44 13° 284° (WNW) 00:52:48 437.405
BEESAT 3 05 Mar 00:49:15 00:52:01 18° 53° (NE) 00:54:51 437.485
SWISSCUBE 05 Mar 00:50:29 00:55:15 77° 259° (W) 01:00:03 437.505
BEESAT 05 Mar 00:58:41 01:03:24 68° 258° (WSW) 01:08:10 436.000
JUGNU 05 Mar 01:03:58 01:08:50 27° 173° (S) 01:13:44 437.505
SRMSAT 05 Mar 01:11:02 01:15:00 18° 166° (SSE) 01:19:03 437.500
BEESAT 2 05 Mar 01:16:54 01:20:33 30° 57° (ENE) 01:24:11 435.950
Gurwin Techsat 1B 05 Mar 01:19:42 01:23:06 18° 93° (E) 01:26:44 435.225
Oscar 19 05 Mar 01:27:42 01:32:50 78° 284° (WNW) 01:37:58 437.125/150
ITUPSAT 1 05 Mar 01:28:13 01:32:30 32° 263° (W) 01:36:45 437.325
AIST 2 05 Mar 01:29:06 01:31:35 15° 52° (NE) 01:34:11 435.215
ITAMSAT 1 05 Mar 01:32:00 01:36:37 33° 97° (E) 01:41:17 435.822/435.867
KKS-1 05 Mar 02:06:41 02:11:08 66° 259° (W) 02:15:36 437.445
STARS 05 Mar 02:07:11 02:11:37 77° 77° (ENE) 02:16:03 437.465
BEESAT 3 05 Mar 02:26:33 02:30:10 30° 248° (WSW) 02:33:40 437.485
AO-7 05 Mar 02:26:47 02:30:54 15° 92° (E) 02:35:39 29.400- 29.500
HORYU 2 05 Mar 02:32:04 02:35:30 22° 96° (E) 02:39:02 437.375
YUBILEINY 05 Mar 02:32:07 02:40:42 54° 80° (E) 02:49:17 435.215
JUGNU 05 Mar 02:52:20 02:57:24 29° 183° (S) 03:02:29 437.505
BEESAT 2 05 Mar 02:55:50 02:58:31 16° 250° (WSW) 03:01:00 435.950
Gurwin Techsat 1B 05 Mar 02:58:18 03:03:18 42° 287° (WNW) 03:08:15 435.225
SRMSAT 05 Mar 02:58:39 03:03:42 28° 175° (S) 03:08:46 437.500
AIST 2 05 Mar 03:06:27 03:10:23 37° 247° (WSW) 03:14:13 435.215
ITAMSAT 1 05 Mar 03:11:53 03:15:57 23° 290° (WNW) 03:19:53 435.822/435.867
MOZHAYETS 4 05 Mar 03:36:34 03:40:54 47° 75° (ENE) 03:45:18
AUBIESAT-1 05 Mar 03:41:40 03:44:56 78° 253° (WSW) 03:48:20 437.475
M-CUBED/EXP-1 PRIME 05 Mar 03:41:59 03:45:15 64° 254° (WSW) 03:48:36 437.505
JAS-2 05 Mar 04:01:06 04:08:46 67° 101° (E) 04:16:34 435.910
HORYU 2 05 Mar 04:08:28 04:12:07 24° 288° (WNW) 04:15:40 437.375
AO-7 05 Mar 04:16:18 04:24:37 82° 287° (WNW) 04:32:54 29.400- 29.500
YUBILEINY 05 Mar 04:30:04 04:37:06 26° 274° (W) 04:43:43 435.215
JUGNU 05 Mar 04:41:31 04:45:57 21° 192° (SSW) 04:50:22 437.505
SRMSAT 05 Mar 04:47:21 04:52:27 29° 185° (S) 04:57:32 437.500
STRAND 1 05 Mar 05:15:47 05:19:51 25° 71° (ENE) 05:24:05 437.568
MOZHAYETS 4 05 Mar 05:16:42 05:18:27 12° 269° (W) 05:19:54
Cubesat XI-IV 05 Mar 05:19:19 05:23:42 26° 96° (E) 05:28:10 437.490
PRISM 05 Mar 05:19:46 05:23:41 44° 75° (ENE) 05:27:41 437.425
AIST 1 05 Mar 05:23:39 05:25:10 12° 88° (E) 05:26:59
PCSat 05 Mar 05:24:14 05:29:39 73° 64° (ENE) 05:35:03 145.827
CUTE-I 05 Mar 05:27:16 05:31:56 31° 97° (E) 05:36:39 437.470
CUBESAT XI-V 05 Mar 05:42:41 05:47:21 83° 77° (ENE) 05:52:06 437.345
JAS-2 05 Mar 05:47:36 05:53:16 22° 293° (WNW) 05:58:42 435.910
AO-7 05 Mar 06:12:22 06:16:25 14° 302° (WNW) 06:19:54 29.400- 29.500
ISS 05 Mar 06:19:44 06:22:39 32° 130° (SE) 06:25:35 145.825
SRMSAT 05 Mar 06:36:55 06:41:09 20° 194° (SSW) 06:45:18 437.500
RS-15 05 Mar 06:45:24 06:55:28 35° 49° (NE) 07:06:11 29.354- 29.394
GONETS M04 05 Mar 06:49:23 06:51:28 11° 64° (ENE) 06:54:29
STRAND 1 05 Mar 06:54:30 06:58:58 29° 263° (W) 07:03:22 437.568
AIST 1 05 Mar 06:58:27 07:02:31 38° 280° (W) 07:06:37
Cubesat XI-IV 05 Mar 06:59:08 07:03:47 30° 289° (WNW) 07:08:19 437.490
CUTE-I 05 Mar 07:07:32 07:11:53 25° 290° (WNW) 07:16:06 437.470
PCSat 05 Mar 07:12:04 07:12:34 10° 255° (WSW) 07:12:38 145.827
O/OREOS (USA 219) 05 Mar 07:16:15 07:19:09 17° 102° (ESE) 07:22:15 437.305
COMPASS 1 05 Mar 07:45:38 07:46:44 11° 91° (E) 07:48:08 437.405
ISS 05 Mar 07:56:56 07:59:07 16° 324° (NW) 08:01:14 145.825
GOMX 1 05 Mar 08:06:27 08:10:18 34° 97° (E) 08:14:06 467.674
SEEDS 05 Mar 08:14:48 08:18:40 34° 98° (E) 08:22:34 437.485
BRITE-PL 05 Mar 08:15:45 08:20:07 79° 101° (E) 08:24:16 437.365/2234.400
CINEMA 3 05 Mar 08:16:28 08:18:31 14° 93° (E) 08:20:48 145.822/145.860
HO-68 05 Mar 08:21:25 08:28:29 58° 102° (ESE) 08:35:33 435.675
CANX-2 05 Mar 08:22:18 08:26:31 60° 100° (E) 08:30:45 2200.000
DOVE 4 05 Mar 08:27:46 08:31:43 41° 98° (E) 08:35:39 437.250
DELFI C3 05 Mar 08:31:35 08:32:52 12° 92° (E) 08:34:26 145.870
CUTE 1.7 + AOD 2 05 Mar 08:40:26 08:44:42 87° 283° (WNW) 08:48:59 437.475
GONETS M04 05 Mar 08:41:09 08:49:56 81° 83° (E) 08:58:46
TIGRISAT 05 Mar 08:46:22 08:48:30 14° 71° (ENE) 08:50:50 435.000
ZACube-1 05 Mar 08:46:55 08:47:34 10° 92° (E) 08:48:32 437.345
O/OREOS (USA 219) 05 Mar 08:54:18 08:58:21 31° 294° (WNW) 09:02:25 437.305
RS-15 05 Mar 08:57:10 09:08:34 61° 248° (WSW) 09:20:18 29.354- 29.394
ANTELSAT 05 Mar 09:00:22 09:03:38 21° 73° (ENE) 09:06:59 437.575/2403.000
UWE-3 05 Mar 09:09:57 09:13:31 28° 97° (E) 09:17:10 435.000/436.395/437.385
NANOSAT C BR1 05 Mar 09:10:15 09:12:21 14° 70° (ENE) 09:14:40 145.865
AAUSAT CUBESAT 2 05 Mar 09:13:41 09:17:49 57° 284° (WNW) 09:21:56 437.432
COMPASS 1 05 Mar 09:18:42 09:22:41 41° 285° (WNW) 09:26:39 437.405
SO-50 05 Mar 09:22:04 09:26:25 31° 56° (NE) 09:30:48 436.795
Oscar 11 05 Mar 09:26:58 09:31:19 86° 102° (ESE) 09:35:39 145.826/435.025
50 SAT 05 Mar 09:29:44 09:30:45 11° 92° (E) 09:32:03 437.505
BUGSAT 1 05 Mar 09:37:50 09:41:05 22° 72° (ENE) 09:44:27 437.445
QB50P1 05 Mar 09:41:59 09:45:50 34° 74° (ENE) 09:49:45 145.935-145.965
GOMX 1 05 Mar 09:46:05 09:48:12 13° 290° (WNW) 09:50:04 467.674
QB50P2 05 Mar 09:46:43 09:50:43 40° 75° (ENE) 09:54:45 145.880/145.840
CUSAT 1 05 Mar 09:48:32 09:49:25 11° 78° (ENE) 09:50:28 437.405
SEEDS 05 Mar 09:51:51 09:54:14 14° 289° (WNW) 09:56:26 437.485
CINEMA 3 05 Mar 09:52:11 09:55:53 31° 286° (WNW) 09:59:34 145.822/145.860
CUBEBUG 2 05 Mar 09:53:06 09:57:13 61° 283° (WNW) 10:01:21 437.445
DX 1 05 Mar 09:56:15 10:00:37 81° 102° (ESE) 10:04:57 434.975-435.025
UNISAT 6 05 Mar 09:56:53 10:01:18 75° 259° (WSW) 10:05:38 437.425
DUCHIFAT 1 05 Mar 09:59:00 10:03:10 56° 76° (ENE) 10:07:22 145.980
HUMSAT D 05 Mar 10:00:31 10:04:30 47° 99° (E) 10:08:31 437.325/437.525
DELFI C3 05 Mar 10:04:28 10:08:17 37° 285° (WNW) 10:12:03 145.870
CUBEBUG 1 05 Mar 10:07:55 10:10:16 15° 93° (E) 10:12:51 437.445
DOVE 4 05 Mar 10:07:58 10:09:11 11° 290° (WNW) 10:10:09 437.250
HO-68 05 Mar 10:10:26 10:15:46 22° 295° (WNW) 10:20:48 435.675
AISAT 05 Mar 10:12:57 10:17:13 46° 100° (E) 10:21:27 437.250
FUNcube-1 05 Mar 10:17:52 10:21:53 46° 284° (WNW) 10:25:54 145.935
ZACube-1 05 Mar 10:20:15 10:24:12 42° 285° (WNW) 10:28:11 437.345
TIGRISAT 05 Mar 10:20:52 10:25:01 38° 262° (W) 10:29:03 435.000
VELOX 1 05 Mar 10:20:59 10:25:21 57° 100° (E) 10:29:41 145.980
POPSAT HIP 1 05 Mar 10:21:36 10:25:53 72° 259° (W) 10:30:09 437.405
UKube-1 05 Mar 10:22:13 10:26:25 49° 285° (WNW) 10:30:35 .
POLYITAN 1 05 Mar 10:22:36 10:26:52 68° 258° (WSW) 10:31:10 437.675
ANTELSAT 05 Mar 10:36:43 10:40:22 24° 264° (W) 10:43:51 437.575/2403.000
GONETS M04 05 Mar 10:41:02 10:45:58 15° 276° (W) 10:50:14
NANOSAT C BR1 05 Mar 10:43:58 10:47:56 36° 262° (W) 10:51:54 145.865
UWE-3 05 Mar 10:47:10 10:49:54 17° 288° (WNW) 10:52:30 435.000/436.395/437.385
ESTCUBE 1 05 Mar 10:47:32 10:51:59 53° 99° (E) 10:56:25 437.505/2401.250
50 SAT 05 Mar 11:02:18 11:05:57 36° 285° (WNW) 11:09:36 437.505
SO-50 05 Mar 11:02:52 11:06:51 24° 249° (WSW) 11:10:40 436.795
BUGSAT 1 05 Mar 11:13:04 11:16:29 23° 264° (W) 11:19:49 437.445
DANDE 05 Mar 11:17:45 11:19:54 22° 264° (W) 11:22:10 436.750
QB50P1 05 Mar 11:19:27 11:21:52 14° 267° (W) 11:24:03 145.935-145.965
QB50P2 05 Mar 11:25:04 11:26:51 12° 268° (W) 11:28:22 145.880/145.840
CUBEBUG 1 05 Mar 11:42:48 11:46:48 34° 286° (WNW) 11:50:43 437.445
AISAT 05 Mar 11:51:41 11:53:29 12° 291° (WNW) 11:55:01 437.250
TISAT 1 05 Mar 11:56:08 12:00:18 63° 101° (E) 12:04:26 437.305
SPROUT 05 Mar 12:02:50 12:07:08 88° 105° (ESE) 12:11:24 437.525
ESTCUBE 1 05 Mar 12:27:03 12:28:28 11° 291° (WNW) 12:29:36 437.505/2401.250
Gurwin Techsat 1B 05 Mar 12:35:46 12:38:57 17° 69° (ENE) 12:42:22 435.225
Oscar 19 05 Mar 12:38:41 12:43:50 84° 77° (ENE) 12:48:59 437.125/150
ITAMSAT 1 05 Mar 12:44:34 12:48:56 29° 71° (ENE) 12:53:25 435.822/435.867
SWISSCUBE 05 Mar 12:56:51 13:01:26 43° 99° (E) 13:06:00 437.505
BEESAT 05 Mar 13:04:50 13:09:29 49° 100° (E) 13:14:08 436.000
AO-7 05 Mar 13:21:19 13:24:55 14° 58° (ENE) 13:29:08 29.400- 29.500
HORYU 2 05 Mar 13:27:42 13:28:28 11° 69° (ENE) 13:29:32 437.375
ITUPSAT 1 05 Mar 13:34:03 13:38:53 78° 283° (WNW) 13:43:40 437.325
STARS 05 Mar 14:03:39 14:07:00 22° 95° (E) 14:10:28 437.465
KKS-1 05 Mar 14:03:52 14:07:57 37° 98° (E) 14:12:04 437.445
JAS-2 05 Mar 14:11:53 14:13:37 12° 63° (ENE) 14:15:49 435.910
Gurwin Techsat 1B 05 Mar 14:13:30 14:18:36 47° 261° (W) 14:23:42 435.225
VERMONT LUNAR 05 Mar 14:16:16 14:19:19 30° 144° (SE) 14:22:26 437.305
ITAMSAT 1 05 Mar 14:24:02 14:28:25 26° 264° (W) 14:32:42 435.822/435.867
ISS 05 Mar 14:27:40 14:30:33 30° 41° (NE) 14:33:27 145.825
SWISSCUBE 05 Mar 14:36:10 14:38:58 15° 291° (WNW) 14:41:33 437.505
BEESAT 3 05 Mar 14:39:02 14:40:33 12° 109° (ESE) 14:42:18 437.485
PHONESAT 2.4 05 Mar 14:42:39 14:45:29 22° 142° (SE) 14:48:24 2401.200-2431.200
BEESAT 05 Mar 14:44:34 14:46:58 13° 291° (WNW) 14:49:06 436.000
HORYU 2 05 Mar 15:00:25 15:04:45 52° 260° (W) 15:09:05 437.375
BEESAT 2 05 Mar 15:06:21 15:09:32 23° 111° (ESE) 15:12:51 435.950
AO-7 05 Mar 15:08:24 15:16:45 83° 73° (ENE) 15:25:07 29.400- 29.500
AIST 2 05 Mar 15:23:14 15:24:37 12° 109° (ESE) 15:26:18 435.215
YUBILEINY 05 Mar 15:25:15 15:33:54 74° 94° (E) 15:42:41 435.215
AUBIESAT-1 05 Mar 15:28:38 15:31:12 15° 98° (E) 15:34:03 437.475
M-CUBED/EXP-1 PRIME 05 Mar 15:29:01 15:31:59 18° 99° (E) 15:35:14 437.505
MOZHAYETS 4 05 Mar 15:38:27 15:41:33 18° 93° (E) 15:44:49
STARS 05 Mar 15:39:55 15:43:26 23° 288° (WNW) 15:46:50 437.465
KKS-1 05 Mar 15:41:46 15:44:20 15° 290° (WNW) 15:46:42 437.445
JAS-2 05 Mar 15:52:33 15:57:56 72° 259° (W) 16:03:57 435.910
VERMONT LUNAR 05 Mar 15:53:53 15:57:10 38° 337° (NNW) 16:00:28 437.305
ISS 05 Mar 16:04:47 16:06:45 15° 233° (SW) 16:08:37 145.825
BEESAT 3 05 Mar 16:14:29 16:18:19 39° 301° (WNW) 16:22:12 437.485
PHONESAT 2.4 05 Mar 16:20:14 16:23:47 52° 334° (NNW) 16:27:21 2401.200-2431.200
Cubesat XI-IV 05 Mar 16:35:58 16:40:13 25° 70° (ENE) 16:44:38 437.490
CUTE-I 05 Mar 16:43:39 16:48:12 30° 71° (ENE) 16:52:52 437.470
BEESAT 2 05 Mar 16:44:21 16:47:39 22° 305° (NW) 16:50:54 435.950
AIST 2 05 Mar 16:58:50 17:02:53 44° 300° (WNW) 17:07:00 435.215
AUBIESAT-1 05 Mar 17:01:55 17:06:08 41° 289° (WNW) 17:10:32 437.475
M-CUBED/EXP-1 PRIME 05 Mar 17:02:49 17:06:55 36° 290° (WNW) 17:11:12 437.505
AO-7 05 Mar 17:05:39 17:10:27 15° 268° (W) 17:14:37 29.400- 29.500
PRISM 05 Mar 17:11:21 17:11:39 10° 91° (E) 17:12:17 437.425
AIST 1 05 Mar 17:11:46 17:15:33 28° 78° (ENE) 17:19:21
MOZHAYETS 4 05 Mar 17:14:43 17:18:51 32° 287° (WNW) 17:22:57
YUBILEINY 05 Mar 17:25:55 17:31:43 18° 292° (WNW) 17:37:01 435.215
O/OREOS (USA 219) 05 Mar 17:31:57 17:34:20 14° 60° (ENE) 17:36:55 437.305
VERMONT LUNAR 05 Mar 17:33:22 17:35:39 16° 353° (N) 17:37:55 437.305
STRAND 1 05 Mar 17:33:27 17:35:38 13° 92° (E) 17:38:10 437.568
CUBESAT XI-V 05 Mar 17:45:42 17:49:53 32° 97° (E) 17:54:06 437.345
PHONESAT 2.4 05 Mar 18:00:05 18:02:44 19° 350° (N) 18:05:23 2401.200-2431.200
Cubesat XI-IV 05 Mar 18:15:27 18:20:12 31° 263° (W) 18:24:54 437.490
PCSat 05 Mar 18:18:20 18:22:15 21° 107° (ESE) 18:26:23 145.827
CUTE-I 05 Mar 18:23:46 18:28:16 26° 264° (W) 18:32:39 437.470
PRISM 05 Mar 18:43:23 18:47:27 46° 285° (WNW) 18:51:28 437.425
HO-68 05 Mar 18:45:04 18:50:25 24° 66° (ENE) 18:56:00 435.675
AIST 1 05 Mar 18:50:09 18:53:01 17° 271° (W) 18:55:41
SEEDS 05 Mar 19:03:41 19:05:14 12° 70° (ENE) 19:07:02 437.485
GOMX 1 05 Mar 19:08:28 19:12:46 26° 73° (ENE) 19:17:03 467.674
O/OREOS (USA 219) 05 Mar 19:09:42 19:14:01 41° 255° (WSW) 19:18:16 437.305
STRAND 1 05 Mar 19:10:13 19:15:13 53° 286° (WNW) 19:20:10 437.568
CANX-2 05 Mar 19:10:41 19:13:46 21° 72° (ENE) 19:16:58 2200.000
VERMONT LUNAR 05 Mar 19:11:55 19:14:23 18° 10° (N) 19:16:51 437.305
BRITE-PL 05 Mar 19:19:24 19:24:52 53° 76° (ENE) 19:30:10 437.365/2234.400
CUBESAT XI-V 05 Mar 19:23:48 19:27:08 19° 289° (WNW) 19:30:17 437.345
DOVE 4 05 Mar 19:27:34 19:31:46 27° 74° (ENE) 19:35:57 437.250
CUTE 1.7 + AOD 2 05 Mar 19:28:08 19:31:48 30° 74° (ENE) 19:35:32 437.475
PHONESAT 2.4 05 Mar 19:39:31 19:42:02 18° 7° (N) 19:44:34 2401.200-2431.200
GONETS M04 05 Mar 19:42:35 19:47:14 17° 84° (E) 19:52:30
AAUSAT CUBESAT 2 05 Mar 19:59:04 20:02:58 42° 76° (ENE) 20:06:54 437.432
PCSat 05 Mar 20:00:26 20:05:27 38° 300° (WNW) 20:10:29 145.827
UWE-3 05 Mar 20:03:31 20:05:21 13° 71° (ENE) 20:07:25 435.000/436.395/437.385
COMPASS 1 05 Mar 20:04:10 20:08:15 59° 76° (ENE) 20:12:20 437.405
Oscar 11 05 Mar 20:16:28 20:20:14 31° 74° (ENE) 20:24:03 145.826/435.025
HO-68 05 Mar 20:30:52 20:37:47 52° 259° (W) 20:44:42 435.675
SEEDS 05 Mar 20:36:50 20:40:46 39° 262° (W) 20:44:41 437.485
CUBEBUG 2 05 Mar 20:45:31 20:49:55 53° 76° (ENE) 20:54:12 437.445
GOMX 1 05 Mar 20:46:02 20:50:47 30° 263° (W) 20:55:16 467.674
CANX-2 05 Mar 20:46:13 20:49:36 23° 265° (W) 20:52:54 2200.000
DELFI C3 05 Mar 20:46:28 20:50:23 57° 77° (ENE) 20:54:21 145.870
DX 1 05 Mar 20:46:28 20:50:23 33° 73° (ENE) 20:54:21 434.975-435.025
CINEMA 3 05 Mar 20:47:17 20:52:06 75° 259° (W) 20:56:43 145.822/145.860
HUMSAT D 05 Mar 20:48:17 20:50:52 17° 72° (ENE) 20:53:36 437.325/437.525
VERMONT LUNAR 05 Mar 20:49:20 20:52:45 54° 27° (NNE) 20:56:09 437.305
BRITE-PL 05 Mar 21:00:06 21:03:37 16° 268° (W) 21:06:46 437.365/2234.400
RS-15 05 Mar 21:02:42 21:12:00 35° 108° (ESE) 21:21:37 29.354- 29.394
DOVE 4 05 Mar 21:05:07 21:09:28 26° 264° (W) 21:13:34 437.250
CUTE 1.7 + AOD 2 05 Mar 21:05:16 21:07:50 15° 267° (W) 21:10:13 437.475
AISAT 05 Mar 21:06:04 21:09:26 22° 72° (ENE) 21:12:55 437.250
FUNcube-1 05 Mar 21:07:44 21:12:04 63° 76° (ENE) 21:16:19 145.935
ZACube-1 05 Mar 21:10:14 21:14:36 69° 77° (ENE) 21:18:52 437.345
UKube-1 05 Mar 21:11:12 21:15:30 64° 76° (ENE) 21:19:50 .
VELOX 1 05 Mar 21:13:38 21:17:16 25° 72° (ENE) 21:21:00 145.980
PHONESAT 2.4 05 Mar 21:17:35 21:21:04 43° 24° (NNE) 21:24:33 2401.200-2431.200
GONETS M04 05 Mar 21:34:38 21:43:20 75° 278° (W) 21:52:01
UWE-3 05 Mar 21:37:24 21:41:38 42° 261° (W) 21:45:45 435.000/436.395/437.385
AAUSAT CUBESAT 2 05 Mar 21:38:06 21:38:53 10° 269° (W) 21:39:23 437.432
QB50P2 05 Mar 21:40:57 21:41:24 10° 91° (E) 21:42:09 145.880/145.840
ESTCUBE 1 05 Mar 21:42:13 21:45:50 25° 72° (ENE) 21:49:34 437.505/2401.250
50 SAT 05 Mar 21:42:55 21:46:47 55° 77° (ENE) 21:50:41 437.505
DUCHIFAT 1 05 Mar 21:51:22 21:53:31 14° 93° (E) 21:55:52 145.980
Oscar 11 05 Mar 21:53:48 21:56:31 16° 267° (W) 21:59:02 145.826/435.025
UNISAT 6 05 Mar 21:54:47 21:58:43 34° 98° (E) 22:02:44 437.425
POPSAT HIP 1 05 Mar 22:13:13 22:16:48 28° 97° (E) 22:20:27 437.405
POLYITAN 1 05 Mar 22:14:26 22:18:06 29° 97° (E) 22:21:49 437.675
TIGRISAT 05 Mar 22:17:51 22:22:08 65° 101° (E) 22:26:31 435.000
HUMSAT D 05 Mar 22:22:48 22:26:29 28° 263° (W) 22:30:04 437.325/437.525
DX 1 05 Mar 22:23:58 22:26:44 16° 266° (W) 22:29:19 434.975-435.025
VERMONT LUNAR 05 Mar 22:27:50 22:30:27 20° 218° (SW) 22:33:01 437.305
CUBEBUG 1 05 Mar 22:32:38 22:37:05 88° 264° (W) 22:41:34 437.445
ANTELSAT 05 Mar 22:33:23 22:37:43 77° 283° (WNW) 22:42:08 437.575/2403.000
NANOSAT C BR1 05 Mar 22:34:35 22:38:42 53° 100° (E) 22:42:47 145.865
DANDE 05 Mar 22:38:45 22:45:01 36° 97° (E) 22:50:01 436.750
AISAT 05 Mar 22:42:08 22:45:56 26° 264° (W) 22:49:39 437.250
TISAT 1 05 Mar 22:43:33 22:46:50 23° 72° (ENE) 22:50:15 437.305
CUSAT 1 05 Mar 22:47:59 22:54:20 54° 97° (E) 22:59:09 437.405
VELOX 1 05 Mar 22:50:19 22:53:48 21° 265° (W) 22:57:11 145.980
SPROUT 05 Mar 22:51:38 22:55:28 32° 74° (ENE) 22:59:21 437.525
PHONESAT 2.4 05 Mar 22:56:16 22:59:26 28° 217° (SW) 23:02:32 2401.200-2431.200
BUGSAT 1 05 Mar 23:00:21 23:04:29 83° 101° (ESE) 23:08:32 437.445
JUGNU 05 Mar 23:01:39 23:05:21 17° 165° (SSE) 23:09:09 437.505
QB50P1 05 Mar 23:08:23 23:12:30 53° 284° (WNW) 23:16:35 145.935-145.965
RS-15 05 Mar 23:13:27 23:24:02 52° 305° (NW) 23:34:37 29.354- 29.394
QB50P2 05 Mar 23:13:34 23:17:36 44° 285° (WNW) 23:21:36 145.880/145.840
ESTCUBE 1 05 Mar 23:19:04 23:22:40 22° 265° (W) 23:26:10 437.505/2401.250
DUCHIFAT 1 05 Mar 23:25:43 23:29:30 32° 286° (WNW) 23:33:13 145.980
SO-50 05 Mar 23:31:09 23:35:12 34° 112° (ESE) 23:39:27 436.795
UNISAT 6 05 Mar 23:32:38 23:35:17 15° 289° (WNW) 23:37:47 437.425
POPSAT HIP 1 05 Mar 23:49:41 23:52:32 17° 289° (WNW) 23:55:13 437.405
POLYITAN 1 05 Mar 23:51:07 23:53:50 16° 289° (WNW) 23:56:24 437.675
